Location: Sperry Observatory
(40.6664°N, 74.3236°W)
Time: 22:33:17
(UTC-04:00)

UOSAT-12 - Visible Passes

Search period start: 27 March 2017 00:00
Search period end: 06 April 2017 00:00
Orbit: 608 x 646 km, 64.6° (Epoch: 26 March)

Date Brightness Start Highest point End Pass type
(mag) Time Alt. Az. Time Alt. Az. Time Alt. Az.
27 Mar 9.8 22:18:30 10° N 22:19:10 12° NNE 22:19:10 12° NNE visible
28 Mar 9.8 22:37:29 10° N 22:38:31 15° N 22:38:31 15° N visible
29 Mar 9.9 22:56:56 10° NNW 22:57:52 16° NNW 22:57:52 16° NNW visible
30 Mar 9.2 21:37:41 10° N 21:39:58 16° NNE 21:39:58 16° NNE visible
30 Mar 10.1 23:16:41 10° NW 23:17:16 13° NW 23:17:16 13° NW visible
31 Mar 8.9 21:56:49 10° NNW 21:59:23 25° NNE 21:59:23 25° NNE visible
01 Apr 9.4 20:38:38 10° NNE 20:39:54 11° NE 20:41:09 10° NE visible
01 Apr 8.7 22:16:19 10° NNW 22:18:51 31° NNW 22:18:51 31° NNW visible
02 Apr 8.8 20:56:55 10° N 21:00:15 19° NE 21:01:03 18° NE visible
02 Apr 9.1 22:36:09 10° NW 22:38:21 27° NW 22:38:21 27° NW visible
03 Apr 8.0 21:16:09 10° NNW 21:20:25 35° NE 21:20:35 35° NE visible
03 Apr 9.7 22:56:27 10° NW 22:57:54 17° WNW 22:57:54 17° WNW visible
04 Apr 9.3 19:57:31 10° NNE 19:59:28 12° NE 20:01:24 10° ENE visible
04 Apr 7.1 21:35:44 10° NNW 21:40:11 71° NE 21:40:11 71° NE visible
05 Apr 8.7 20:16:11 10° N 20:19:47 22° NE 20:22:32 13° E visible
05 Apr 7.8 21:55:39 10° NW 21:59:51 51° WSW 21:59:51 51° WSW visible
